sat.trackr.live / text

‹ back to catalog

TRANSPORTER-12 OBJECT BT

NORAD 62674 · 2025-009BT

PAYLOAD ACTIVE UNKNOWN

§ Identity

Operator
Country
TBD
Launch date
2025-01-14
Launch site
AFWTR
Launch vehicle
Mass (kg)
RCS (m²)

External: N2YO · Heavens-Above · Gunter

§ Orbital elements

Epoch: 2026-05-25T05:28:28.278912Z

Period
94.14 min
Inclination
97.4054°
Eccentricity
0.0005414
Mean motion
15.29591827 rev/d
Perigee alt
473.3 km
Apogee alt
480.7 km
Semi-major
6,855.2 km
B*
3.9238e-4
RAAN
227.7489°
Arg perigee
50.5194°
Mean anomaly
309.6524°
Rev number
13,305

§ Raw data

TRANSPORTER-12 OBJECT BT1 62674U 25009BT  26145.22810508  .00011186  00000+0  39238-3 0  99992 62674  97.4054 227.7489 0005414  50.5194 309.6524 15.29591827133053

JSON: /api/v1/satellites/62674 · /tle

For live sub-satellite position, see the globe view (requires WebGL).

§ Visibility from observer

Set your observer location to see the next 7 days of passes ≥ 10°. The values pass through the URL so the page stays shareable.

No JS? Fill the form by hand. The geolocation button needs JavaScript.